| time (UTC) | temp F | wind direction | speed knots | gust knots | rain 1hr in | rain 24hr in | rain mn in | humidity % | barometer mb |
| 20260505081503 | 64 | 298 | 5.2 | 9.6 | 0.00 | 0.20 | 0.20 | 91 | 1012.7 |
| 20260505080011 | 64 | 297 | 6.1 | 13.9 | 0.00 | 0.20 | 0.20 | 92 | 1012.7 |
| 20260505074503 | 64 | 291 | 7.0 | 13.9 | 0.00 | 0.20 | 0.20 | 92 | 1012.6 |
| 20260505073009 | 64 | 294 | 6.1 | 7.0 | 0.00 | 0.20 | 0.20 | 92 | 1012.7 |
| 20260505071504 | 64 | 292 | 5.2 | 13.9 | 0.00 | 0.20 | 0.20 | 92 | 1012.7 |
| 20260505064504 | 64 | 285 | 7.0 | 12.2 | 0.00 | 0.20 | 0.20 | 92 | 1012.6 |
| 20260505063004 | 63 | 287 | 7.0 | 19.1 | 0.00 | 0.20 | 0.20 | 92 | 1012.5 |
| 20260505061504 | 63 | 275 | 7.0 | 13.0 | 0.00 | 0.20 | 0.20 | 92 | 1012.5 |
| 20260505054504 | 63 | 288 | 7.8 | 13.9 | 0.00 | 0.20 | 0.20 | 92 | 1012.1 |
| 20260505053004 | 63 | 294 | 7.8 | 15.6 | 0.00 | 0.20 | 0.20 | 92 | 1011.9 |
| 20260505051504 | 63 | 281 | 7.0 | 20.0 | 0.00 | 0.20 | 0.20 | 92 | 1011.9 |
| 20260505041504 | 62 | 291 | 7.8 | 14.8 | 0.00 | 0.20 | 0.20 | 93 | 1011.6 |
| 20260505040005 | 62 | 281 | 7.8 | 17.4 | 0.00 | 0.20 | 0.20 | 93 | 1011.6 |
| 20260505034504 | 62 | 284 | 7.0 | 15.6 | 0.00 | 0.20 | 0.20 | 93 | 1011.8 |
| 20260505031504 | 62 | 297 | 7.0 | 15.6 | 0.01 | 0.20 | 0.20 | 93 | 1012.1 |
| 20260505024504 | 62 | 300 | 7.0 | 14.8 | 0.02 | 0.20 | 0.20 | 92 | 1012.3 |
| 20260505023005 | 62 | 297 | 7.0 | 17.4 | 0.02 | 0.20 | 0.20 | 92 | 1012.5 |
| 20260505021504 | 62 | 303 | 7.0 | 15.6 | 0.02 | 0.20 | 0.20 | 92 | 1012.7 |
| 20260505020006 | 62 | 309 | 7.0 | 18.2 | 0.00 | 0.18 | 0.18 | 92 | 1012.7 |
| 20260505014504 | 62 | 301 | 7.0 | 16.5 | 0.00 | 0.18 | 0.18 | 92 | 1012.9 |
| 20260505013005 | 62 | 311 | 6.1 | 16.5 | 0.01 | 0.18 | 0.18 | 92 | 1013.0 |
| 20260505011504 | 61 | 313 | 7.0 | 18.2 | 0.04 | 0.18 | 0.18 | 91 | 1013.2 |
| 20260505010005 | 61 | 314 | 5.2 | 16.5 | 0.05 | 0.18 | 0.18 | 92 | 1013.5 |
| 20260505003004 | 61 | 315 | 5.2 | 13.9 | 0.07 | 0.17 | 0.17 | 91 | 1013.8 |
| 20260505001504 | 61 | 313 | 6.1 | 14.8 | 0.06 | 0.14 | 0.14 | 91 | 1014.2 |
| 20260505000005 | 61 | 308 | 4.3 | 13.0 | 0.08 | 0.13 | 0.13 | 92 | 1014.4 |
| 20260504234504 | 62 | 324 | 3.5 | 11.3 | 0.09 | 0.11 | 0.11 | 92 | 1014.6 |
| 20260504230008 | 62 | 321 | 3.5 | 9.6 | 0.06 | 0.06 | 0.06 | 90 | 1015.2 |
| 20260504223009 | 63 | 315 | 3.5 | 8.7 | 0.00 | 0.00 | 0.00 | 86 | 1015.4 |
| 20260504221504 | 63 | 319 | 2.6 | 9.6 | 0.00 | 0.00 | 0.00 | 84 | 1015.5 |
| 20260504220006 | 63 | 319 | 3.5 | 10.4 | 0.00 | 0.00 | 0.00 | 82 | 1015.7 |
| 20260504214504 | 63 | 316 | 3.5 | 11.3 | 0.00 | 0.00 | 0.00 | 82 | 1015.9 |
| 20260504213006 | 63 | 319 | 4.3 | 12.2 | 0.00 | 0.00 | 0.00 | 84 | 1015.8 |
| 20260504211504 | 63 | 316 | 4.3 | 12.2 | 0.00 | 0.00 | 0.00 | 86 | 1016.1 |
| 20260504210004 | 63 | 314 | 4.3 | 15.6 | 0.00 | 0.00 | 0.00 | 86 | 1016.0 |
| 20260504204505 | 63 | 307 | 4.3 | 12.2 | 0.00 | 0.00 | 0.00 | 86 | 1016.0 |
| 20260504201506 | 63 | 314 | 4.3 | 10.4 | 0.00 | 0.00 | 0.00 | 88 | 1016.2 |
| 20260504194504 | 63 | 312 | 3.5 | 10.4 | 0.00 | 0.00 | 0.00 | 88 | 1016.3 |
| 20260504193006 | 63 | 315 | 4.3 | 10.4 | 0.00 | 0.00 | 0.00 | 87 | 1016.3 |
| 20260504191507 | 64 | 309 | 5.2 | 10.4 | 0.00 | 0.00 | 0.00 | 87 | 1016.0 |
| 20260504190004 | 64 | 305 | 4.3 | 11.3 | 0.00 | 0.00 | 0.00 | 87 | 1015.8 |
| 20260504184504 | 64 | 314 | 5.2 | 9.6 | 0.00 | 0.00 | 0.00 | 87 | 1015.8 |
| 20260504183004 | 64 | 316 | 4.3 | 11.3 | 0.00 | 0.00 | 0.00 | 86 | 1015.7 |
| 20260504174504 | 64 | 313 | 3.5 | 12.2 | 0.00 | 0.00 | 0.00 | 85 | 1016.0 |
| 20260504173020 | 64 | 315 | 5.2 | 10.4 | 0.00 | 0.00 | 0.00 | 84 | 1016.2 |
| 20260504171506 | 64 | 314 | 4.3 | 10.4 | 0.00 | 0.00 | 0.00 | 83 | 1016.2 |